Location: Brantley
(31.5822°N, 86.2569°W)
Time: 18:27:10
(UTC+00:00)

Courier 1B Rocket - Pass Details

Date: 16 February 2026
Orbit: 920 x 1201 km, 28.2° (Epoch: 10 March)

Event Time Altitude Azimuth Distance (km) Brightness Sun altitude
Enters shadow 03:59:59 - 266° (W) 3,633 8.4 -56.5°
Rises 04:00:01 0° 266° (W) 3,626 - -56.5°
Reaches altitude 10° 04:02:35 10° 264° (W) 2,711 - -57.0°
Maximum altitude 04:09:07 67° 183° (S) 1,100 - -58.2°
Drops below altitude 10° 04:16:08 10° 102° (ESE) 2,911 - -59.5°
Sets 04:19:00 0° 100° (E) 3,911 - -60.0°
